Regional Weather Roundup
Issued by NWS

Home | Current Version | Previous Version | Text Only | Print | Product List | Glossary Off
Versions: 1 2 3 4 5 6 7 8 9 10 11 12 13 14 15 16 17 18 19 20 21 22 23 24 25 26 27

000
ASUS45 KSLC 200410
RWRUT

UTAH REGIONAL WEATHER ROUNDUP
NATIONAL WEATHER SERVICE SALT LAKE CITY UT
1000 PM MDT SAT APR 19 2014

UTZ001>011-023>025-200500-

NORTHERN UTAH

CITY           SKY/WX    TMP DP  RH WIND       PRES   REMARKS
HILL AFB       PTCLDY    58  29  33 E9        30.01R
LOGAN          CLEAR     54  32  43 SE6       30.00R
OGDEN          PTCLDY    57  32  38 S5        29.99R
PROVO AIRPORT  CLEAR     57  39  51 SE5       30.03R
SALT LAKE CITY PTCLDY    58  37  45 S8        29.99R
VERNAL         PTCLDY    51  41  68 S6        30.07R
WENDOVER       CLEAR     63  37  39 S10       29.98R
HEBER CITY     CLEAR     45  32  61 E3        30.07R
WEST JORDAN    CLEAR     57  41  54 S5        30.02R

$$

UTZ012>022-026-027-200500-

SOUTHERN UTAH

CITY           SKY/WX    TMP DP  RH WIND       PRES   REMARKS
BRYCE CANYON   PTCLDY    39  31  72 W8        30.22R WCI  33
CEDAR CITY     CLOUDY    60  33  36 SE7       30.09R
MILFORD        MOCLDY    64  33  31 SW9       30.04R
MOAB/CYNLANDS  CLEAR     57  39  51 NW8       30.04R
PRICE          PTCLDY    50  33  52 N8        30.11R
ST GEORGE      CLEAR     70  36  28 SE9       29.99R

$$

REGIONAL REPORTS     COLORADO/ARIZONA

CITY           SKY/WX    TMP DP  RH WIND       PRES   REMARKS
CRAIG, CO      CLOUDY    45  37  73 CALM      30.12R
GRAND JUNCTION PTCLDY    51  43  74 NE3       30.07R
RIFLE          PTCLDY    54  39  57 E5        30.10R
MONTROSE       PTCLDY    51  46  83 SE6       30.13R
CORTEZ         CLEAR     49  32  52 E6        30.10R
PAGE, AZ       PTCLDY    64  35  34 S5        30.04R
GRAND CANYON   CLEAR     38  37  97 CALM      30.18R
KINGMAN        CLOUDY    70  35  27 S3        30.03R
FLAGSTAFF      CLEAR     39  31  72 CALM      30.20R

$$

REGIONAL REPORTS    NEVADA/IDAHO/WYOMING

CITY           SKY/WX    TMP DP  RH WIND       PRES   REMARKS
LAS VEGAS, NV  CLEAR     80  34  19 SW7       29.88R
ELY            CLEAR     47  35  63 S12       30.10R
ELKO           CLEAR     55  26  32 S3        30.01R
POCATELLO, ID  CLEAR     52  30  43 S10       29.96R
BURLEY         MOCLDY    55  37  50 VRB3      29.92R
EVANSTON, WY   PTCLDY    44  28  53 SW8       30.12R
ROCK SPRINGS   MOCLDY    51  31  46 SW12      30.09R

$$



USA.gov is the U.S. government's official web portal to all federal, state and local government web resources and services.